Location: Champs
(48.8539°N, 2.6040°E)
Time: 06:00:35
(UTC+00:00)

Cosmos 1975 Rocket - Pass Details

Date: 26 October 2021
Orbit: 603 x 634 km, 82.5° (Epoch: 04 December)

Event Time Altitude Azimuth Distance (km) Brightness Sun altitude
Rises 05:20:58 0° 219° (SW) 2,905 6.2 -11.5°
Reaches altitude 10° 05:23:29 10° 232° (SW) 2,008 5.3 -11.0°
Maximum altitude 05:27:16 27° 290° (WNW) 1,227 4.0 -10.4°
Drops below altitude 10° 05:31:06 10° 349° (NNW) 2,030 5.5 -9.8°
Sets 05:33:40 0° 1° (N) 2,945 6.5 -9.4°
